Surat Thani, Thailand

10:41 PM +07 on August 16, 2017 (GMT +0700)
Surat Thani

Weather History for VTSB - August, 2013

Change the Weather History Date:

Thursday, August 8, 2013

  Actual Average Record
Temperature  
Mean Temperature 83 °F -  
Max Temperature 91 °F 90 °F - ()
Min Temperature 75 °F 74 °F - ()
Cooling Degree Days 18    
Growing Degree Days 33 (Base 50)    
Moisture  
Dew Point 76 °F    
Average Humidity 85    
Maximum Humidity 100    
Minimum Humidity 56    
Precipitation  
Precipitation 0.00 in 0.20 in - ()
Sea Level Pressure  
Sea Level Pressure 29.77 in    
Wind  
Wind Speed 4 mph ()    
Max Wind Speed 14 mph    
Max Gust Speed -    
Visibility 5.3 miles    
Events      
T = Trace of Precipitation, MM = Missing Value Source: Averaged Metar Reports

Daily Weather History Graph

Daily Weather History Graph

Search for Another Location

Airport or City:

Trip Planner

Search our weather history database for the weather conditions in past years. The results will help you decide how hot, cold, wet, or windy it might be!

Date:

Astronomy

Aug. 08, 2013 Rise Set
Actual Time 6:14 AM +07 6:43 PM +07
Civil Twilight 5:53 AM +07 7:05 PM +07
Nautical Twilight 5:27 AM +07 7:30 PM +07
Astronomical Twilight 5:01 AM +07 7:56 PM +07
Moon 7:06 AM +07 (8/8) 7:36 PM +07 (8/8)
Length of Visible Light 13h 11m
Length of Day
12h 28m
New Moon, 2% of the Moon is Illuminated
Aug 8
New Moon
Aug 14
First Quarter
Aug 21
Full
Aug 28
Last Quarter
Sep 5
New

Hourly Weather History & Observations

Time (+07) Temp. Heat Index Dew Point Humidity Pressure Visibility Wind Dir Wind Speed Gust Speed Precip Events Conditions
1:00 AM 76 °F - 75 °F 94% 29.81 in 4 mi Calm Calm - -   Mist
1:00 AM 75.2 °F - 75.2 °F 100% 29.80 in 4.3 mi Calm Calm - N/A   Scattered Clouds
2:00 AM 75.2 °F - 75.2 °F 100% 29.80 in 3.7 mi SW 3.5 mph - N/A   Scattered Clouds
7:00 AM 76 °F - 74 °F 94% 29.78 in 5 mi Calm Calm - -   Mist
8:00 AM 78.8 °F - 77.0 °F 94% 29.80 in 4.3 mi South 6.9 mph - N/A   Mostly Cloudy
9:00 AM 80.6 °F 87.1 °F 77.0 °F 89% 29.83 in 6.2 mi South 9.2 mph - N/A   Mostly Cloudy
10:00 AM 82.4 °F 90.9 °F 77.0 °F 84% 29.83 in 6.2 mi SSW 9.2 mph - N/A   Mostly Cloudy
11:00 AM 84.2 °F 94.1 °F 77.0 °F 79% 29.83 in 6.2 mi South 8.1 mph - N/A   Overcast
12:00 PM 87.8 °F 97.6 °F 75.2 °F 66% 29.80 in 6.2 mi SW 9.2 mph - N/A   Overcast
1:00 PM 90 °F - 76 °F 56% 29.75 in 5 mi WSW 5.8 mph - -   Mist
1:00 PM 86.0 °F 95.1 °F 75.2 °F 70% 29.77 in 6.2 mi SW 11.5 mph - N/A   Overcast
2:00 PM 87.8 °F 99.7 °F 77.0 °F 70% 29.74 in 6.2 mi SW 10.4 mph - N/A   Overcast
3:00 PM 86.0 °F 95.1 °F 75.2 °F 70% 29.74 in 6.2 mi WSW 13.8 mph - N/A   Overcast
4:00 PM 86.0 °F 95.1 °F 75.2 °F 70% 29.71 in 6.2 mi West 9.2 mph - N/A   Overcast
5:00 PM 82.4 °F 90.9 °F 77.0 °F 84% 29.71 in 6.2 mi SSW 6.9 mph - N/A   Overcast
6:00 PM 80.6 °F 87.1 °F 77.0 °F 89% 29.71 in 6.2 mi SSW 8.1 mph - N/A   Overcast
7:00 PM 81 °F - 77 °F 83% 29.75 in 5 mi Calm Calm - -   Mist
7:00 PM 78.8 °F - 78.8 °F 100% 29.74 in 5.0 mi South 5.8 mph - N/A   Overcast
8:00 PM 78.8 °F - 78.8 °F 100% 29.74 in 5.0 mi South 3.5 mph - N/A   Overcast
9:00 PM 78.8 °F - 78.8 °F 100% 29.80 in 4.3 mi SSE 4.6 mph - N/A   Mostly Cloudy
10:00 PM 77.0 °F - 77.0 °F 100% 29.83 in 4.3 mi South 4.6 mph - N/A   Mostly Cloudy